This is the latest recevied weather packets stored in our database for station/object WE1C. If no packets are shown the sender has not sent any weather packets the latest 10 day(s).
| Time | Temp. | Humidity | Pressure | Rain* | Wind** | Luminosity | Snow |
|---|---|---|---|---|---|---|---|
| 1777994541 | 24.44° C | 43% | 1038.3 hPa | 0 mm | - | 818 W/m² | - |
| 1777994235 | 24.44° C | 43% | 1038.8 hPa | 0 mm | - | 845 W/m² | - |
| 1777993933 | 24.44° C | 43% | 1038.7 hPa | 0 mm | - | 858 W/m² | - |
| 1777993629 | 24.44° C | 43% | 1038.5 hPa | 0 mm | - | 874 W/m² | - |
| 1777993326 | 23.89° C | 45% | 1038.7 hPa | 0 mm | - | 889 W/m² | - |
| 1777993026 | 23.33° C | 45% | 1038.7 hPa | 0 mm | - | 895 W/m² | - |
| 1777992725 | 23.33° C | 46% | 1038.7 hPa | 0 mm | - | 657 W/m² | - |
| 1777992422 | 23.33° C | 46% | 1038.8 hPa | 0 mm | - | 508 W/m² | - |
| 1777992121 | 23.33° C | 46% | 1038.7 hPa | 0 mm | - | 368 W/m² | - |
| 1777991817 | 22.78° C | 46% | 1039.1 hPa | 0 mm | - | 945 W/m² | - |
| 1777991515 | 22.22° C | 48% | 1038.8 hPa | 0 mm | - | 868 W/m² | - |
| 1777991211 | 22.78° C | 47% | 1038.9 hPa | 0 mm | - | 257 W/m² | - |
| 1777990909 | 22.78° C | 47% | 1038.8 hPa | 0 mm | - | 822 W/m² | - |
| 1777990607 | 22.22° C | 49% | 1038.9 hPa | 0 mm | - | 765 W/m² | - |
| 1777989999 | 21.67° C | 51% | 1039.1 hPa | 0 mm | - | 727 W/m² | - |
| 1777989697 | 21.67° C | 51% | 1039.1 hPa | 0 mm | - | 691 W/m² | - |
| 1777989392 | 21.11° C | 53% | 1039.1 hPa | 0 mm | - | 707 W/m² | - |
| 1777989089 | 20.56° C | 53% | 1039.1 hPa | 0 mm | - | 726 W/m² | - |
| 1777988785 | 20.56° C | 54% | 1039 hPa | 0 mm | - | 694 W/m² | - |
| 1777988483 | 20° C | 55% | 1039.1 hPa | 0 mm | - | 678 W/m² | - |
| 1777988179 | 20° C | 55% | 1039.1 hPa | 0 mm | - | 668 W/m² | - |
| 1777987875 | 19.44° C | 58% | 1039.2 hPa | 0 mm | - | 630 W/m² | - |
| 1777987572 | 18.89° C | 58% | 1039 hPa | 0 mm | - | 600 W/m² | - |
| 1777987269 | 18.89° C | 57% | 1039.1 hPa | 0 mm | - | 573 W/m² | - |
| 1777986966 | 18.33° C | 58% | 1038.9 hPa | 0 mm | - | 548 W/m² | - |
* Rain latest hour (hover to see other rain measurements)
** Current wind speed in m/s (hover to see current wind gust speed)